Weather in Alleroy

Russia / Chechen Republic     43°12′55″N   46°17′01″E
temp.,
°C
wind,
m/s
gust,
m/s
humid.,
%
clouds,
%
prec.,
mm/h
press.,
hPa
HPBL,
m
13 june, sun
sun1300:00+18s2183100 0.0 101115
03:00+18sw1183100 0.0 101111
06:00+19wsw1278100 0.1 1011139
09:00+22w346690 0.4 1011698
12:00+24wnw336593 1.0 10101204
15:00+22nw457999 6.6 1011769
18:00+19wsw2592100 4.4 1012229
21:00+17sw2293100 4.6 101325
14 june, mon
mon1400:00+15sw22920 0.0 101225
03:00+15sw22890 0.0 101220
06:00+17wsw23850 0.0 1013119
09:00+22wnw23640 0.0 1012786
12:00+26n22530 0.0 10111245
15:00+28ene22481 0.0 10101440
18:00+27se12602 0.0 1010202
21:00+20se22810 0.1 101026
15 june, tue
tue1500:00+19sse22830 0.0 101019
03:00+18sse22820 0.0 100816
06:00+20ne01760 0.0 1008107
09:00+25ne2361100 0.0 1008956
12:00+29ne325086 0.0 10071390
15:00+30ene43430 0.0 10071518
18:00+26e35600 0.0 1008273
21:00+21ese22750 0.0 101027
16 june, wed
wed1600:00+20s22810 0.0 100915
03:00+19sse11820 0.0 100911
06:00+21ene12740 0.0 1009114
09:00+27ene56560 0.0 1007838
12:00+31ene77420 0.0 10051143
15:00+31ene77400 0.0 1004896
18:00+26ene47550 0.0 1005353
21:00+20w01740 0.0 100613
17 june, thu
thu1700:00+19wsw22780 0.0 100618
03:00+19wsw22800 0.0 100512
06:00+22sw23700 0.0 1006124
09:00+27w45510 0.0 1006785
12:00+31wnw66440 0.0 10071565
15:00+31w774444 0.0 10091926
18:00+26w796434 0.1 1012992
21:00+21wsw510782 0.4 1015516